Temperature
21 19 18 19 19 20 20 19 19 20 21 20 19 18 18 19 19 19 19 19 19 19 19 19 19 18 18 18 18 18 17 17 17 16 16 16 16 15 15 15 15 15 15 15
18 19 20 20 21 21 20 20 19 20 21 20 19 18 18 18 18 19 19 18 19 19 19 19 18 18 18 18 18 18 17 17 17 16 16 16 16 15 15 15 15 15 15 14
19 20 21 22 21 21 20 20 20 20 20 20 19 18 18 18 19 19 19 19 19 19 19 19 18 18 18 18 18 18 17 17 17 16 16 16 15 15 15 15 15 15 15 14
20 21 22 21 21 21 20 21 21 20 19 17 19 17 17 17 18 18 18 19 19 19 19 19 19 18 18 18 18 18 17 17 17 16 16 16 16 15 15 15 15 15 14 14
20 21 21 21 21 21 20 21 21 20 19 18 17 17 16 17 17 17 17 19 19 19 19 19 19 19 18 18 18 17 17 17 16 16 16 16 16 15 15 15 15 14 14 14
20 21 21 21 21 21 21 19 19 17 16 17 17 17 16 16 17 17 18 19 19 19 19 19 19 19 18 18 18 17 17 17 16 16 16 16 15 15 15 15 14 14 14 14
19 20 21 21 20 20 19 17 16 16 15 16 17 17 16 17 17 18 18 18 19 19 19 18 18 18 18 18 17 17 17 16 16 16 16 15 15 15 15 15 14 14 14 14
18 18 20 21 20 19 19 17 16 16 16 16 17 16 17 18 18 18 18 18 18 18 18 18 18 18 18 18 17 17 17 16 16 16 15 15 15 15 15 14 14 14 14 14
17 18 20 21 21 20 19 17 17 16 16 16 16 16 17 18 17 17 17 17 17 18 18 18 18 18 18 17 17 17 16 16 16 15 15 15 15 15 15 14 14 14 14 14
18 18 19 20 20 20 19 18 15 16 16 15 16 16 16 17 17 17 16 16 17 17 17 17 17 17 17 17 17 17 16 16 16 15 15 15 15 15 14 14 14 14 14 13
17 17 17 18 19 19 19 18 16 14 15 15 15 15 17 16 16 16 16 16 17 17 17 17 17 17 17 17 16 16 16 16 15 15 15 15 15 14 14 14 14 14 14 13
16 14 15 17 18 18 18 18 16 15 15 14 14 15 17 16 16 16 16 17 16 16 16 17 17 16 16 16 16 16 16 15 15 15 15 15 14 14 14 14 14 14 13 13
16 14 15 16 16 17 17 17 16 15 14 13 14 15 16 15 16 16 16 16 16 16 16 16 16 16 16 16 16 15 15 15 15 15 15 14 14 14 14 14 14 13 13 13
16 14 14 15 15 16 16 17 16 15 14 13 14 15 15 15 15 15 15 15 15 15 15 15 15 15 15 15 15 15 15 15 15 14 14 14 14 14 14 14 14 13 13 13
14 14 15 15 16 16 16 16 16 15 14 14 14 15 15 14 14 15 15 15 15 14 15 15 15 15 15 15 15 15 15 15 14 14 14 14 14 14 14 13 13 13 13 13
13 14 15 15 16 15 15 15 15 15 15 14 14 14 14 14 14 14 14 14 13 13 14 14 14 14 14 14 14 14 14 14 14 14 14 14 13 13 13 13 13 13 13 12
13 13 14 13 14 15 14 14 14 14 14 14 13 13 14 13 13 13 13 13 13 13 13 13 13 14 14 14 14 14 14 14 14 14 14 13 13 13 13 13 13 13 12 12
13 12 12 12 14 14 14 14 15 14 14 14 13 13 13 13 13 13 13 13 13 13 12 13 13 13 13 13 14 14 14 14 14 13 13 13 13 13 13 12 12 12 12 12
12 12 11 11 12 13 14 14 14 14 13 13 13 12 13 13 12 12 12 12 12 12 12 12 12 12 13 13 13 13 13 13 13 13 13 13 13 12 12 12 12 12 12 11
12 11 11 11 12 12 13 14 15 14 12 12 12 12 12 12 10 10 12 12 12 12 12 12 12 12 12 12 12 12 12 12 12 12 12 12 12 12 12 12 12 11 11 11
12 11 11 11 11 12 12 13 14 13 12 12 12 12 12 11 11 11 11 12 12 12 11 11 11 11 11 11 11 12 12 12 12 12 12 12 12 12 12 11 11 11 11 11
12 11 11 10 11 11 12 12 12 11 12 12 12 12 12 12 12 11 11 11 11 11 11 11 11 11 11 11 11 11 11 11 11 11 11 11 11 11 11 11 11 11 11 10
11 11 10 10 11 11 12 12 13 13 12 12 12 12 12 11 11 11 11 11 11 10 10 10 10 10 10 10 10 10 10 10 10 11 11 11 11 11 10 10 10 10 10 10
10 10 9 9 10 11 12 12 12 12 12 12 12 12 12 11 11 11 10 10 10 10 10 10 10 10 10 10 10 10 10 10 10 10 10 10 10 10 10 10 10 10 9 9
9 10 9 9 10 10 11 12 12 11 12 11 11 11 11 11 11 10 10 10 10 10 9 9 9 9 9 9 9 9 9 9 9 9 9 9 9 9 9 9 9 9 9 9
8 9 9 9 10 9 10 11 11 11 11 11 11 11 11 11 10 10 10 10 9 9 9 9 9 9 9 9 9 9 9 9 9 9 9 9 9 9 8 8 8 8 8 8
Wind_Speed
1 3 3 7 7 6 5 4 4 5 4 5 5 6 7 7 7 8 8 9 9 9 7 7 8 8 8 8 8 8 8 6 6 4 4 3 2 1 2 2 4 5 6 6
3 3 8 6 4 4 3 3 3 3 3 4 4 6 6 6 8 10 12 11 11 9 6 7 7 8 8 9 8 8 8 7 6 5 4 3 3 2 1 1 3 4 5 6
6 6 4 3 2 2 2 3 4 4 2 1 0 4 4 5 5 7 9 10 11 13 12 10 9 8 8 8 9 9 8 8 6 6 4 4 3 3 2 1 1 1 4 5
4 4 2 2 2 3 4 4 4 3 0 3 1 3 6 5 4 6 8 9 10 11 11 11 10 9 10 9 8 8 8 7 7 7 7 7 4 3 3 2 2 1 2 4
3 3 1 2 4 4 5 3 3 2 2 2 1 2 7 2 4 7 8 10 10 11 12 12 12 12 10 9 8 7 7 7 7 7 8 7 5 3 2 2 2 1 1 2
4 3 4 4 3 2 1 4 4 4 3 2 4 4 5 4 7 6 7 8 10 10 10 10 10 9 7 7 7 7 7 6 6 7 7 7 7 6 4 3 3 2 1 1
4 4 2 2 1 2 5 5 3 4 3 4 2 3 5 6 5 5 5 7 8 9 9 9 8 9 8 8 8 7 8 7 6 7 7 7 7 8 7 6 5 4 2 2
1 5 3 1 4 4 3 7 5 3 3 4 2 3 5 5 3 1 1 3 5 6 7 8 9 10 10 9 8 8 8 7 7 7 7 6 7 6 5 6 5 5 4 4
2 5 3 1 1 5 3 3 6 5 1 2 3 4 5 4 4 3 2 3 3 4 5 6 6 7 8 8 8 9 8 7 7 7 7 6 7 6 6 6 5 4 4 4
3 3 4 2 2 1 4 5 5 3 1 2 4 3 3 4 2 1 0 2 2 3 4 4 5 6 6 6 6 6 7 8 6 6 6 6 6 7 6 6 5 5 4 4
3 1 4 3 2 3 1 1 3 3 4 4 2 5 3 3 2 2 3 3 3 4 4 4 5 5 4 4 4 5 6 5 5 6 6 6 6 6 6 6 6 6 5 5
2 3 1 5 5 3 4 3 4 3 3 3 3 5 4 1 1 2 1 1 2 3 3 4 4 4 3 3 3 4 5 5 5 5 5 6 6 5 6 6 5 5 5 5
2 4 2 6 6 5 2 1 2 3 3 3 3 5 2 3 3 2 2 1 1 2 2 2 2 3 3 3 3 4 4 5 5 4 5 5 5 6 6 6 5 5 5 5
3 3 5 5 5 3 4 4 1 3 3 4 6 6 5 3 3 2 1 1 1 2 2 2 1 1 1 2 2 3 3 3 4 4 4 5 6 7 7 6 6 5 5 5
4 1 3 4 4 2 3 4 2 2 5 6 5 5 5 3 2 1 0 1 2 2 1 1 1 1 1 0 1 1 2 3 3 4 5 6 6 5 5 6 6 5 5 5
2 1 1 3 2 1 2 4 3 3 3 3 2 3 3 2 1 2 1 2 2 2 1 1 0 1 1 1 1 1 2 2 3 4 5 5 5 5 5 5 5 5 4 4
1 2 1 3 3 3 3 4 3 2 1 3 3 4 2 1 2 1 1 2 2 1 1 1 1 2 2 3 2 2 3 2 3 3 4 4 5 5 5 5 5 5 5 4
4 2 2 1 1 3 5 2 2 2 1 1 1 1 1 1 2 3 4 3 3 2 2 2 2 2 3 3 2 2 2 2 2 3 3 4 5 6 5 5 5 5 4 5
5 5 2 2 2 4 4 3 2 2 2 2 1 1 2 2 4 4 4 3 1 1 1 2 2 2 2 2 2 1 1 1 1 1 2 3 5 6 6 6 6 4 4 4
3 4 3 2 3 5 4 5 3 3 1 4 1 1 1 4 2 3 4 3 3 2 2 2 2 2 2 3 2 1 1 1 2 3 4 3 4 5 6 7 6 4 4 5
2 2 2 3 4 5 4 5 2 2 4 3 0 1 1 1 3 3 1 2 2 2 2 2 2 2 2 2 2 1 1 2 3 3 2 2 4 5 6 5 4 4 4 4
4 2 2 3 3 5 4 2 2 4 2 2 1 1 1 1 1 1 0 1 2 3 3 2 2 2 2 1 1 2 3 4 2 2 1 1 2 3 3 4 3 3 4 4
3 4 4 5 5 4 2 1 1 2 2 1 1 1 1 2 1 1 1 2 2 2 3 2 2 2 2 2 1 1 4 3 1 1 1 1 1 1 3 4 4 3 3 4
3 1 2 1 3 2 2 1 1 1 1 1 1 1 1 2 2 2 2 2 3 3 3 2 2 3 4 3 2 2 3 1 1 1 1 1 1 1 1 2 3 4 4 4
3 0 1 3 3 2 2 2 1 2 1 1 1 2 3 3 3 3 3 3 3 4 4 3 3 4 5 4 3 3 2 1 1 1 1 1 1 1 1 1 2 3 4 5
3 4 4 6 5 4 5 4 2 2 2 2 2 2 3 3 4 4 4 4 4 4 4 3 3 4 4 3 3 3 3 1 1 1 1 1 1 1 1 1 1 1 2 4
Wind_Direction
32 90 216 224 208 196 192 204 232 240 221 171 210 237 234 213 199 197 198 193 193 193 193 174 165 158 156 156 154 153 150 154 144 138 136 127 127 106 71 92 109 107 106 108
37 250 234 223 209 191 194 214 252 277 238 183 210 245 241 216 208 203 198 196 194 192 182 178 170 164 162 164 163 163 162 163 161 159 159 153 150 147 148 117 96 111 115 118
196 236 236 211 221 194 221 203 221 237 300 318 95 308 282 254 226 214 202 195 191 188 186 182 177 172 167 168 170 170 171 167 163 152 133 109 81 66 65 79 111 123 127 124
228 249 223 217 234 190 247 233 214 218 137 275 183 269 281 259 238 220 213 202 196 193 187 183 180 177 178 178 171 167 168 166 164 155 151 151 154 165 194 189 185 176 134 129
256 231 191 225 243 192 224 238 221 207 170 299 314 181 285 270 244 241 223 212 203 193 186 184 183 185 181 173 166 165 164 167 166 162 162 161 162 174 169 153 154 167 157 139
243 239 190 208 239 201 146 40 33 46 75 291 248 188 278 250 234 237 226 213 201 189 185 185 183 174 170 166 165 163 166 172 174 171 171 170 169 167 158 161 167 181 189 205
322 303 263 192 266 347 69 77 31 2 3 260 248 174 253 267 246 226 221 208 194 183 176 178 174 172 172 173 176 174 174 182 184 181 184 183 179 174 177 179 180 178 182 202
281 283 263 203 188 201 176 143 156 199 228 277 326 230 262 294 295 280 138 166 163 167 171 176 183 182 181 180 181 180 184 191 191 190 195 191 184 182 188 186 181 185 191 200
197 267 287 261 180 154 153 177 177 155 220 271 285 288 316 350 12 30 77 100 135 161 165 176 183 185 184 183 187 189 187 194 196 195 193 191 187 186 190 186 181 184 189 192
161 267 290 302 27 356 163 154 97 117 175 267 291 272 261 281 302 333 91 157 169 160 166 167 169 179 185 190 191 190 188 194 197 195 192 191 192 189 186 177 178 180 187 184
88 131 313 344 219 226 144 122 122 136 157 164 253 273 242 219 211 221 222 200 181 168 170 175 180 181 177 176 177 186 190 193 196 198 197 187 192 187 178 179 184 183 183 181
68 113 271 274 279 241 177 177 150 161 223 176 185 262 296 221 186 161 210 213 172 158 161 167 164 157 158 171 182 192 198 200 204 199 191 189 187 179 179 183 187 179 178 184
82 95 30 339 341 2 30 64 136 133 135 175 191 250 311 26 15 40 71 31 158 138 118 127 135 149 170 186 194 201 206 211 207 189 183 188 188 183 186 190 185 177 175 178
91 118 171 208 233 274 304 305 294 125 167 212 221 237 289 323 341 349 10 39 139 137 122 114 134 180 181 185 202 209 218 212 201 189 187 194 200 198 195 189 182 181 180 178
85 164 222 249 264 252 273 283 293 234 212 208 232 235 258 276 277 272 4 63 77 69 71 102 173 215 220 244 247 236 233 218 199 192 200 210 207 199 192 187 184 181 178 182
70 176 254 292 280 325 308 300 277 267 246 205 216 272 269 281 11 35 38 79 76 61 51 24 258 241 268 261 261 268 270 249 206 202 212 211 201 190 188 188 181 175 177 180
189 156 158 267 281 356 298 270 222 221 234 180 221 259 275 57 70 63 87 96 89 56 18 343 298 252 263 264 244 244 253 251 213 214 216 202 196 192 195 189 178 183 184 179
173 147 151 230 355 246 250 274 156 130 13 32 90 280 322 124 113 66 74 82 62 39 19 346 323 312 298 281 270 269 272 250 227 227 224 209 195 192 186 180 187 194 187 185
165 150 141 150 211 265 280 291 235 183 308 349 25 14 17 78 65 29 20 41 49 26 358 328 315 298 316 323 304 328 339 320 290 271 256 231 204 194 187 189 195 196 183 188
87 111 136 154 196 235 250 297 304 113 269 320 353 74 61 77 66 297 332 4 15 13 6 351 353 13 3 337 349 29 345 336 281 268 264 242 206 197 197 197 195 195 189 193
26 46 159 193 223 255 270 306 26 153 245 275 271 136 122 165 205 223 294 348 359 359 347 344 0 4 333 333 5 2 344 293 282 284 275 248 219 206 202 198 190 180 180 181
189 186 204 179 215 257 301 34 144 221 227 201 169 150 126 117 121 124 62 340 343 328 317 327 340 322 315 341 19 344 304 293 305 314 308 284 244 215 196 182 182 175 171 177
195 195 190 193 216 259 295 187 211 156 161 218 191 256 127 103 128 270 265 277 293 299 305 310 308 306 311 296 258 284 289 296 310 322 306 293 283 230 190 179 180 179 179 185
299 37 127 241 266 288 324 25 47 130 180 245 228 197 160 189 210 230 247 270 287 289 289 296 306 305 296 283 285 273 286 289 290 270 262 251 211 235 209 184 182 186 193 196
255 266 209 253 270 306 308 311 321 341 342 328 301 234 201 202 231 238 238 254 268 280 281 277 276 279 278 279 283 288 281 279 307 272 253 235 209 194 197 198 204 207 212 204
228 198 199 235 236 226 255 260 268 282 268 252 262 274 251 225 231 242 250 256 260 268 277 283 283 281 276 271 273 281 277 248 236 255 265 256 223 205 198 191 325 314 237 229
Height
1501 1507 1511 1508 1506 1507 1510 1514 1516 1511 1504 1508 1512 1511 1508 1507 1508 1509 1510 1511 1513 1514 1517 1519 1521 1522 1524 1526 1527 1528 1529 1530 1531 1532 1532 1533 1533 1534 1534 1534 1534 1534 1534 1533
1507 1509 1502 1500 1501 1503 1507 1512 1513 1508 1503 1506 1510 1509 1505 1505 1505 1505 1506 1507 1509 1512 1514 1517 1518 1520 1521 1523 1525 1526 1527 1529 1530 1531 1531 1532 1533 1533 1533 1533 1533 1533 1533 1533
1507 1503 1497 1499 1502 1504 1507 1510 1510 1510 1506 1505 1509 1512 1507 1503 1502 1503 1503 1504 1506 1508 1510 1513 1515 1517 1519 1521 1522 1524 1525 1527 1528 1529 1530 1531 1532 1532 1532 1532 1532 1532 1532 1532
1502 1498 1497 1499 1501 1502 1509 1502 1502 1505 1513 1518 1512 1526 1512 1504 1502 1501 1501 1502 1503 1505 1507 1510 1512 1514 1516 1518 1520 1522 1523 1525 1526 1527 1528 1529 1529 1530 1530 1530 1531 1531 1531 1531
1502 1497 1498 1501 1500 1499 1502 1498 1500 1503 1510 1517 1516 1524 1517 1505 1504 1500 1498 1498 1500 1502 1504 1506 1509 1511 1513 1515 1517 1519 1521 1523 1524 1525 1526 1527 1528 1528 1529 1529 1529 1529 1529 1529
1498 1494 1495 1496 1495 1495 1497 1500 1504 1509 1516 1527 1518 1523 1520 1509 1502 1497 1495 1495 1497 1499 1501 1504 1506 1509 1511 1513 1515 1517 1518 1520 1521 1523 1524 1525 1525 1526 1527 1527 1527 1527 1527 1527
1503 1497 1494 1493 1497 1497 1501 1515 1528 1529 1535 1531 1516 1519 1516 1500 1495 1493 1492 1492 1493 1496 1498 1501 1504 1506 1509 1511 1512 1514 1515 1517 1519 1520 1521 1522 1523 1524 1524 1525 1525 1525 1525 1525
1513 1512 1497 1493 1497 1501 1503 1512 1530 1537 1538 1530 1517 1519 1509 1497 1494 1492 1491 1491 1492 1494 1497 1499 1501 1503 1506 1507 1510 1511 1513 1514 1516 1517 1518 1520 1521 1521 1522 1522 1523 1523 1523 1524
1513 1511 1495 1492 1492 1496 1503 1510 1510 1523 1525 1531 1525 1515 1504 1496 1494 1492 1492 1492 1493 1494 1495 1497 1499 1502 1503 1505 1507 1508 1510 1511 1513 1514 1516 1517 1518 1519 1520 1520 1521 1521 1521 1522
1505 1509 1499 1494 1493 1494 1497 1502 1515 1522 1531 1535 1527 1519 1515 1502 1498 1495 1494 1493 1493 1494 1495 1497 1498 1499 1501 1503 1504 1506 1507 1508 1510 1511 1513 1514 1515 1516 1517 1518 1518 1518 1519 1519
1502 1510 1506 1500 1499 1500 1500 1503 1510 1519 1523 1532 1534 1524 1501 1499 1497 1497 1495 1493 1493 1494 1495 1496 1497 1498 1500 1501 1502 1503 1505 1506 1507 1508 1510 1511 1512 1513 1514 1515 1516 1516 1517 1517
1503 1511 1514 1506 1496 1494 1496 1501 1508 1520 1522 1524 1529 1522 1497 1496 1495 1495 1494 1494 1493 1494 1494 1495 1496 1497 1498 1499 1500 1501 1502 1503 1504 1505 1507 1508 1509 1510 1511 1512 1513 1514 1514 1514
1503 1512 1520 1515 1510 1501 1500 1500 1503 1509 1518 1524 1527 1519 1497 1497 1496 1494 1494 1494 1493 1493 1494 1494 1495 1496 1496 1497 1498 1499 1500 1500 1502 1503 1504 1505 1506 1507 1508 1509 1510 1511 1511 1512
1501 1510 1517 1519 1514 1507 1505 1502 1501 1508 1518 1520 1516 1510 1501 1498 1497 1495 1494 1494 1493 1493 1493 1493 1494 1495 1495 1495 1496 1497 1497 1498 1499 1500 1501 1501 1502 1503 1504 1505 1506 1507 1508 1508
1502 1510 1508 1507 1504 1504 1504 1502 1501 1505 1508 1512 1508 1505 1501 1498 1497 1495 1494 1493 1493 1492 1492 1492 1493 1493 1493 1494 1494 1495 1495 1496 1496 1497 1498 1498 1499 1500 1501 1502 1503 1504 1505 1505
1504 1509 1507 1507 1503 1503 1504 1502 1501 1501 1502 1503 1502 1503 1498 1497 1495 1494 1494 1493 1492 1492 1492 1492 1492 1492 1492 1492 1492 1492 1493 1493 1493 1494 1494 1495 1496 1497 1498 1498 1499 1500 1501 1502
1506 1509 1512 1514 1507 1505 1510 1503 1501 1501 1499 1500 1503 1501 1497 1496 1495 1494 1493 1493 1492 1492 1492 1491 1491 1490 1491 1490 1490 1490 1490 1491 1491 1491 1491 1492 1493 1493 1494 1495 1496 1497 1498 1498
1505 1508 1513 1515 1511 1516 1508 1497 1496 1497 1498 1497 1497 1497 1495 1494 1494 1494 1493 1492 1492 1491 1491 1490 1490 1490 1490 1489 1489 1488 1488 1488 1488 1488 1489 1489 1489 1490 1491 1492 1492 1493 1494 1495
1499 1505 1513 1518 1517 1512 1503 1497 1496 1498 1500 1497 1496 1495 1495 1493 1493 1494 1494 1493 1492 1491 1490 1489 1489 1489 1488 1488 1487 1486 1486 1486 1486 1486 1486 1486 1486 1487 1487 1488 1488 1489 1490 1491
1499 1502 1510 1515 1515 1514 1504 1495 1492 1494 1502 1497 1495 1494 1493 1492 1497 1497 1494 1493 1491 1491 1490 1489 1488 1487 1487 1486 1485 1485 1484 1483 1483 1483 1483 1483 1483 1483 1484 1484 1485 1486 1486 1487
1505 1507 1511 1513 1513 1507 1498 1493 1492 1503 1503 1497 1494 1493 1493 1493 1494 1493 1492 1492 1491 1489 1489 1488 1487 1485 1485 1484 1483 1483 1482 1481 1481 1480 1480 1480 1480 1480 1480 1481 1481 1482 1483 1484
1505 1508 1509 1511 1513 1509 1495 1494 1497 1498 1494 1494 1493 1492 1492 1491 1491 1491 1490 1490 1489 1488 1487 1486 1485 1484 1483 1482 1481 1480 1479 1479 1478 1478 1477 1476 1476 1477 1477 1477 1478 1478 1479 1479
1501 1501 1502 1504 1504 1497 1494 1494 1494 1494 1493 1493 1492 1492 1491 1490 1490 1490 1489 1489 1488 1487 1486 1484 1483 1482 1481 1481 1480 1478 1477 1476 1475 1474 1474 1473 1473 1473 1473 1473 1474 1474 1475 1475
1499 1497 1499 1501 1497 1495 1494 1493 1493 1493 1492 1491 1491 1490 1490 1489 1488 1488 1487 1487 1486 1485 1484 1482 1481 1479 1478 1478 1477 1476 1475 1474 1472 1471 1471 1470 1470 1470 1470 1470 1470 1470 1471 1471
1498 1497 1498 1498 1496 1494 1493 1492 1492 1491 1491 1490 1489 1489 1488 1487 1486 1485 1484 1484 1483 1482 1481 1480 1479 1477 1476 1475 1474 1473 1472 1471 1470 1469 1468 1467 1467 1466 1466 1466 1466 1466 1466 1467
1495 1495 1496 1495 1492 1492 1491 1491 1490 1489 1488 1488 1487 1486 1485 1484 1483 1482 1481 1481 1480 1479 1478 1477 1476 1474 1473 1472 1471 1470 1469 1468 1467 1466 1465 1464 1463 1463 1463 1462 1462 1462 1463 1463